This is the latest recevied weather packets stored in our database for station/object OK2ILA-1. If no packets are shown the sender has not sent any weather packets the latest 10 day(s).
| Time | Temp. | Humidity | Pressure | Rain* | Wind** | Luminosity | Snow |
|---|---|---|---|---|---|---|---|
| 1777802808 | 23.33° C | 100% | 1019.7 hPa | 0 mm | - | - | - |
| 1777800646 | 22.78° C | 100% | 1020.2 hPa | 0 mm | - | - | - |
| 1777799926 | 22.22° C | 100% | 1020.2 hPa | 0 mm | - | - | - |
| 1777799205 | 22.22° C | 100% | 1020.3 hPa | 0 mm | - | - | - |
| 1777798484 | 22.22° C | 100% | 1020.4 hPa | 0 mm | - | - | - |
| 1777797043 | 21.67° C | 100% | 1020.4 hPa | 0 mm | - | - | - |
| 1777796322 | 21.67° C | 100% | 1020.5 hPa | 0 mm | - | - | - |
| 1777795602 | 21.11° C | 100% | 1020.5 hPa | 0 mm | - | - | - |
| 1777794881 | 20.56° C | 100% | 1020.4 hPa | 0 mm | - | - | - |
| 1777794160 | 20° C | 100% | 1020.4 hPa | 0 mm | - | - | - |
| 1777793440 | 20° C | 100% | 1020.4 hPa | 0 mm | - | - | - |
| 1777792719 | 19.44° C | 100% | 1020.4 hPa | 0 mm | - | - | - |
| 1777791998 | 18.33° C | 100% | 1020.3 hPa | 0 mm | - | - | - |
| 1777791278 | 17.78° C | 100% | 1020.3 hPa | 0 mm | - | - | - |
| 1777790557 | 17.78° C | 100% | 1020.3 hPa | 0 mm | - | - | - |
| 1777789836 | 17.22° C | 100% | 1020.3 hPa | 0 mm | - | - | - |
| 1777789116 | 16.11° C | 100% | 1020.3 hPa | 0 mm | - | - | - |
| 1777788395 | 15.56° C | 100% | 1020.1 hPa | 0 mm | - | - | - |
| 1777787674 | 14.44° C | 100% | 1020.2 hPa | 0 mm | - | - | - |
| 1777786954 | 13.33° C | 100% | 1020.2 hPa | 0 mm | - | - | - |
| 1777786233 | 12.22° C | 100% | 1020.1 hPa | 0 mm | - | - | - |
| 1777785512 | 11.67° C | 100% | 1020.1 hPa | 0 mm | - | - | - |
| 1777784792 | 10.56° C | 100% | 1020.1 hPa | 0 mm | - | - | - |
| 1777784071 | 9.44° C | 100% | 1020.2 hPa | 0 mm | - | - | - |
| 1777783350 | 8.89° C | 100% | 1020.2 hPa | 0 mm | - | - | - |
* Rain latest hour (hover to see other rain measurements)
** Current wind speed in m/s (hover to see current wind gust speed)